timestamp,wind_dir_avg,wind_spd_avg,wind_spd_max_dir,wind_spd_gust,battery_voltage,lat,long
2024-02-04 00:04:00+00:00,62.0,13.6,68.0,15.58,12.25,47.59359,-54.27349
2024-02-04 00:14:00+00:00,61.0,10.37,55.0,12.69,12.25,47.59359,-54.27349
2024-02-04 00:24:00+00:00,64.0,12.67,67.0,15.39,12.25,47.59359,-54.27349
2024-02-04 00:34:00+00:00,65.0,12.47,61.0,14.6,12.25,47.59359,-54.27349
2024-02-04 00:44:00+00:00,62.0,12.71,60.0,15.21,12.25,47.59359,-54.27349
2024-02-04 00:54:00+00:00,65.0,11.29,62.0,12.7,12.25,47.59359,-54.27349
2024-02-04 01:04:00+00:00,55.0,12.03,51.0,13.86,12.25,47.59359,-54.27349
2024-02-04 01:14:00+00:00,52.0,11.83,47.0,13.05,12.17,47.59359,-54.27349
2024-02-04 01:24:00+00:00,60.0,12.72,56.0,15.65,12.17,47.59359,-54.27349
2024-02-04 01:34:00+00:00,56.0,12.63,54.0,13.47,12.17,47.59359,-54.27349
2024-02-04 01:44:00+00:00,60.0,12.61,59.0,14.94,12.17,47.59359,-54.27349
2024-02-04 01:54:00+00:00,61.0,12.37,60.0,14.79,12.17,47.59359,-54.27349
2024-02-04 02:04:00+00:00,58.0,11.68,54.0,13.05,12.17,47.59359,-54.27349
2024-02-04 02:14:01+00:00,66.0,11.82,62.0,14.24,12.17,47.59359,-54.27349
2024-02-04 02:24:01+00:00,64.0,12.2,63.0,13.63,12.17,47.59359,-54.27349
2024-02-04 02:34:01+00:00,65.0,10.1,63.0,11.2,12.17,47.59359,-54.27349
2024-02-04 02:44:01+00:00,63.0,9.39,58.0,10.95,12.17,47.59359,-54.27349
2024-02-04 02:54:01+00:00,59.0,9.83,59.0,11.64,12.17,47.59359,-54.27349
2024-02-04 03:04:01+00:00,58.0,11.11,53.0,13.49,12.17,47.59359,-54.27349
2024-02-04 03:14:00+00:00,60.0,11.57,62.0,13.1,12.17,47.59359,-54.27349
2024-02-04 03:24:00+00:00,61.0,11.38,56.0,12.97,12.17,47.59359,-54.27349
2024-02-04 03:34:00+00:00,63.0,12.83,52.0,15.39,12.17,47.59359,-54.27349
2024-02-04 03:44:00+00:00,62.0,12.0,60.0,14.72,12.17,47.59359,-54.27349
2024-02-04 03:54:00+00:00,59.0,11.11,59.0,12.53,12.17,47.59359,-54.27349
2024-02-04 04:04:00+00:00,64.0,10.15,63.0,11.6,12.17,47.59359,-54.27349
2024-02-04 04:14:00+00:00,61.0,10.93,57.0,12.67,12.17,47.59359,-54.27349
2024-02-04 04:24:00+00:00,70.0,13.33,69.0,15.44,12.17,47.59359,-54.27349
2024-02-04 04:34:00+00:00,67.0,12.24,68.0,13.41,12.17,47.59359,-54.27349
2024-02-04 04:44:00+00:00,62.0,11.49,62.0,13.26,12.17,47.59359,-54.27349
2024-02-04 04:54:00+00:00,61.0,10.56,52.0,12.81,12.17,47.59359,-54.27349
2024-02-04 05:04:00+00:00,59.0,12.54,58.0,15.29,12.17,47.59359,-54.27349
2024-02-04 05:14:00+00:00,58.0,11.41,59.0,12.83,12.09,47.59359,-54.27349
2024-02-04 05:24:00+00:00,58.0,12.43,51.0,13.47,12.09,47.59359,-54.27349
2024-02-04 05:34:00+00:00,59.0,10.88,63.0,12.56,12.09,47.59359,-54.27349
2024-02-04 05:44:00+00:00,68.0,11.79,71.0,13.66,12.09,47.59359,-54.27349
2024-02-04 05:54:00+00:00,59.0,11.22,59.0,13.04,12.09,47.59359,-54.27349
2024-02-04 06:04:00+00:00,62.0,11.44,55.0,12.92,12.09,47.59359,-54.27349
2024-02-04 06:14:00+00:00,53.0,12.81,50.0,14.2,12.09,47.59359,-54.27349
2024-02-04 06:24:00+00:00,60.0,11.83,66.0,12.95,12.09,47.59359,-54.27349
2024-02-04 06:34:00+00:00,62.0,10.78,64.0,15.56,12.09,47.59359,-54.27349
2024-02-04 06:44:00+00:00,60.0,11.69,55.0,12.96,12.09,47.59359,-54.27349
2024-02-04 06:54:00+00:00,56.0,13.07,57.0,15.1,12.09,47.59359,-54.27349
2024-02-04 07:04:00+00:00,53.0,12.61,50.0,13.85,12.09,47.59359,-54.27349
2024-02-04 07:14:00+00:00,54.0,12.31,53.0,14.14,12.09,47.59359,-54.27349
2024-02-04 07:24:00+00:00,57.0,12.46,57.0,14.83,12.09,47.59359,-54.27349
2024-02-04 07:34:00+00:00,56.0,13.4,55.0,14.96,12.09,47.59359,-54.27349
2024-02-04 07:44:00+00:00,56.0,13.25,57.0,15.91,12.09,47.59359,-54.27349
2024-02-04 07:54:00+00:00,54.0,11.19,56.0,12.87,12.09,47.59359,-54.27349
2024-02-04 08:04:00+00:00,57.0,13.94,54.0,15.63,12.09,47.59359,-54.27349
2024-02-04 08:14:00+00:00,58.0,12.49,53.0,13.49,12.01,47.59359,-54.27349
2024-02-04 08:24:00+00:00,54.0,12.84,50.0,14.52,12.01,47.59359,-54.27349
2024-02-04 08:34:00+00:00,59.0,11.42,59.0,13.28,12.01,47.59359,-54.27349
2024-02-04 08:44:00+00:00,58.0,12.23,60.0,14.05,12.01,47.59359,-54.27349
2024-02-04 08:54:00+00:00,60.0,12.37,55.0,17.4,12.01,47.59359,-54.27349
2024-02-04 09:04:00+00:00,57.0,14.11,60.0,15.44,12.01,47.59359,-54.27349
2024-02-04 09:14:00+00:00,54.0,14.26,57.0,16.86,12.09,47.59359,-54.27349
2024-02-04 09:24:00+00:00,52.0,10.78,55.0,13.29,12.09,47.59359,-54.27349
2024-02-04 09:34:00+00:00,56.0,12.74,57.0,17.02,12.09,47.59359,-54.27349
2024-02-04 09:44:00+00:00,63.0,11.85,67.0,14.27,12.09,47.59359,-54.27349
2024-02-04 09:54:00+00:00,56.0,13.69,54.0,15.98,12.09,47.59359,-54.27349
2024-02-04 10:04:00+00:00,59.0,12.23,59.0,15.0,12.09,47.59359,-54.27349
2024-02-04 10:14:00+00:00,60.0,13.23,60.0,15.03,12.01,47.59359,-54.27349
2024-02-04 10:24:00+00:00,51.0,11.81,52.0,17.4,12.01,47.59359,-54.27349
2024-02-04 10:34:00+00:00,58.0,12.85,52.0,15.71,12.01,47.59359,-54.27349
2024-02-04 10:44:00+00:00,55.0,13.28,53.0,16.81,12.01,47.59359,-54.27349
2024-02-04 10:54:00+00:00,53.0,13.06,55.0,16.11,12.01,47.59359,-54.27349
2024-02-04 11:04:00+00:00,52.0,14.42,55.0,18.08,12.01,47.59359,-54.27349
2024-02-04 11:14:00+00:00,50.0,13.44,53.0,16.88,12.01,47.59359,-54.27349
2024-02-04 11:24:00+00:00,54.0,14.06,59.0,16.79,12.01,47.59359,-54.27349
2024-02-04 11:34:00+00:00,53.0,13.99,52.0,16.87,12.01,47.59359,-54.27349
2024-02-04 11:44:00+00:00,49.0,12.75,54.0,15.38,12.01,47.59359,-54.27349
2024-02-04 11:54:00+00:00,50.0,12.27,53.0,14.51,12.01,47.59359,-54.27349
2024-02-04 12:04:00+00:00,48.0,11.07,41.0,13.63,12.01,47.59359,-54.27349
2024-02-04 12:14:00+00:00,45.0,11.95,44.0,14.6,12.01,47.59359,-54.27349
2024-02-04 12:24:00+00:00,41.0,12.38,57.0,19.77,12.01,47.59359,-54.27349
2024-02-04 12:34:00+00:00,46.0,11.6,51.0,15.42,12.01,47.59359,-54.27349
2024-02-04 12:44:00+00:00,42.0,11.21,35.0,13.49,12.01,47.59359,-54.27349
2024-02-04 12:54:00+00:00,38.0,12.13,45.0,14.58,12.01,47.59359,-54.27349
2024-02-04 13:04:00+00:00,43.0,12.56,52.0,15.28,12.01,47.59359,-54.27349
2024-02-04 13:14:00+00:00,41.0,11.92,47.0,14.39,12.25,47.59359,-54.27349
2024-02-04 13:24:00+00:00,41.0,11.4,39.0,13.82,12.25,47.59359,-54.27349
2024-02-04 13:34:00+00:00,45.0,12.71,51.0,14.98,12.25,47.59359,-54.27349
2024-02-04 13:44:00+00:00,46.0,12.72,47.0,15.79,12.25,47.59359,-54.27349
2024-02-04 13:54:00+00:00,45.0,11.42,52.0,14.53,12.25,47.59359,-54.27349
2024-02-04 14:04:00+00:00,43.0,11.2,48.0,14.72,12.25,47.59359,-54.27349
2024-02-04 14:14:00+00:00,45.0,10.06,56.0,13.19,12.81,47.59359,-54.27349
2024-02-04 14:24:00+00:00,42.0,11.01,49.0,14.44,12.81,47.59359,-54.27349
2024-02-04 14:34:00+00:00,51.0,14.42,58.0,19.21,12.81,47.59359,-54.27349
2024-02-04 14:44:00+00:00,51.0,12.78,60.0,17.35,12.81,47.59359,-54.27349
2024-02-04 14:54:00+00:00,48.0,12.13,55.0,15.79,12.81,47.59359,-54.27349
2024-02-04 15:04:00+00:00,41.0,10.7,52.0,14.28,12.81,47.59359,-54.27349
2024-02-04 15:14:00+00:00,44.0,11.46,49.0,15.11,12.97,47.59359,-54.27349
2024-02-04 15:24:00+00:00,47.0,12.69,48.0,15.43,12.97,47.59359,-54.27349
2024-02-04 15:34:00+00:00,42.0,10.91,47.0,14.49,12.97,47.59359,-54.27349
2024-02-04 15:44:00+00:00,44.0,10.35,54.0,13.66,12.97,47.59359,-54.27349
2024-02-04 15:54:00+00:00,50.0,9.72,63.0,12.59,12.97,47.59359,-54.27349
2024-02-04 16:04:00+00:00,55.0,12.46,68.0,18.11,12.97,47.59359,-54.27349
2024-02-04 16:14:00+00:00,47.0,11.71,54.0,14.44,13.29,47.59359,-54.27349
2024-02-04 16:24:00+00:00,44.0,10.19,45.0,14.74,13.29,47.59359,-54.27349
2024-02-04 16:34:00+00:00,45.0,9.41,52.0,12.48,13.29,47.59359,-54.27349
2024-02-04 16:44:00+00:00,44.0,9.68,43.0,10.87,13.29,47.59359,-54.27349
2024-02-04 16:54:00+00:00,46.0,9.24,54.0,11.79,13.29,47.59359,-54.27349
2024-02-04 17:04:00+00:00,46.0,9.0,48.0,11.58,13.29,47.59359,-54.27349
2024-02-04 17:14:00+00:00,61.0,8.85,67.0,14.18,12.81,47.59359,-54.27349
2024-02-04 17:24:00+00:00,66.0,12.63,74.0,18.19,12.81,47.59359,-54.27349
2024-02-04 17:34:00+00:00,59.0,8.84,67.0,13.05,12.81,47.59359,-54.27349
2024-02-04 17:44:00+00:00,59.0,9.73,65.0,12.95,12.81,47.59359,-54.27349
2024-02-04 17:54:00+00:00,55.0,9.47,64.0,13.78,12.81,47.59359,-54.27349
2024-02-04 18:04:00+00:00,49.0,9.87,56.0,12.3,12.81,47.59359,-54.27349
2024-02-04 18:14:00+00:00,56.0,13.15,69.0,18.81,12.65,47.59359,-54.27349
2024-02-04 18:24:00+00:00,49.0,9.49,53.0,12.42,12.65,47.59359,-54.27349
2024-02-04 18:34:00+00:00,54.0,9.44,55.0,14.08,12.65,47.59359,-54.27349
2024-02-04 18:44:00+00:00,53.0,10.81,58.0,15.01,12.65,47.59359,-54.27349
2024-02-04 18:54:00+00:00,51.0,11.53,62.0,17.51,12.65,47.59359,-54.27349
2024-02-04 19:04:00+00:00,48.0,9.86,51.0,14.96,12.65,47.59359,-54.27349
2024-02-04 19:14:00+00:00,50.0,11.04,54.0,15.37,12.57,47.59359,-54.27349
2024-02-04 19:24:00+00:00,48.0,11.27,57.0,16.33,12.57,47.59359,-54.27349
2024-02-04 19:34:00+00:00,48.0,10.46,58.0,13.57,12.57,47.59359,-54.27349
2024-02-04 19:44:00+00:00,51.0,11.72,60.0,15.27,12.57,47.59359,-54.27349
2024-02-04 19:54:00+00:00,49.0,11.19,54.0,13.92,12.57,47.59359,-54.27349
2024-02-04 20:04:00+00:00,46.0,9.97,64.0,15.52,12.57,47.59359,-54.27349
2024-02-04 20:14:00+00:00,46.0,11.05,53.0,15.76,12.41,47.59359,-54.27349
2024-02-04 20:24:00+00:00,48.0,10.6,52.0,14.94,12.41,47.59359,-54.27349
2024-02-04 20:34:00+00:00,48.0,11.75,57.0,15.4,12.41,47.59359,-54.27349
2024-02-04 20:44:00+00:00,48.0,11.9,55.0,14.92,12.41,47.59359,-54.27349
2024-02-04 20:54:00+00:00,48.0,12.04,60.0,17.08,12.41,47.59359,-54.27349
2024-02-04 21:04:00+00:00,47.0,11.75,56.0,15.13,12.41,47.59359,-54.27349
2024-02-04 21:14:00+00:00,51.0,12.58,64.0,16.68,12.33,47.59359,-54.27349
2024-02-04 21:24:00+00:00,52.0,12.97,63.0,18.88,12.33,47.59359,-54.27349
2024-02-04 21:34:00+00:00,54.0,13.55,62.0,18.66,12.33,47.59359,-54.27349
2024-02-04 21:44:00+00:00,53.0,13.12,59.0,18.81,12.33,47.59359,-54.27349
2024-02-04 21:54:00+00:00,50.0,12.32,55.0,15.68,12.33,47.59359,-54.27349
2024-02-04 22:04:00+00:00,48.0,11.93,54.0,15.47,12.33,47.59359,-54.27349
2024-02-04 22:14:00+00:00,48.0,11.79,57.0,20.81,12.25,47.59359,-54.27349
2024-02-04 22:24:00+00:00,46.0,11.35,51.0,14.98,12.25,47.59359,-54.27349
2024-02-04 22:34:00+00:00,51.0,14.91,57.0,20.7,12.25,47.59359,-54.27349
2024-02-04 22:44:00+00:00,52.0,13.66,58.0,17.81,12.25,47.59359,-54.27349
2024-02-04 22:54:00+00:00,52.0,13.61,66.0,18.3,12.25,47.59359,-54.27349
2024-02-04 23:04:00+00:00,51.0,13.41,57.0,19.8,12.25,47.59359,-54.27349
2024-02-04 23:14:00+00:00,53.0,13.23,62.0,17.85,12.25,47.59359,-54.27349
2024-02-04 23:24:00+00:00,54.0,14.9,60.0,20.66,12.25,47.59359,-54.27349
2024-02-04 23:34:00+00:00,55.0,15.34,60.0,19.91,12.25,47.59359,-54.27349
2024-02-04 23:44:00+00:00,54.0,13.7,66.0,19.34,12.25,47.59359,-54.27349
2024-02-04 23:54:00+00:00,58.0,17.4,61.0,20.05,12.25,47.59359,-54.27349
